Location: Houston
(29.7631°N, 95.3631°W)
Time: 17:27:02
(UTC-06:00)

Envisat - Pass Details

Date: 27 October 2019
Orbit: 764 x 766 km, 98.1° (Epoch: 11 November)

Event Time Altitude Azimuth Distance (km) Brightness Sun altitude
Rises 06:59:08 0° 37° (NE) 3,230 6.6 -7.6°
Reaches altitude 10° 07:02:30 10° 60° (ENE) 2,300 6.3 -6.9°
Maximum altitude 07:05:18 15° 94° (E) 1,981 6.7 -6.3°
Drops below altitude 10° 07:08:05 10° 128° (SE) 2,293 6.7 -5.7°
Sets 07:11:24 0° 151° (SSE) 3,214 6.9 -5.0°
